Location: Miles
(41.4492°N, 81.6087°W)
Time: 19:53:50
(UTC+00:00)

Transit 2A - Pass Details

Date: 21 September 2024
Orbit: 590 x 960 km, 66.7° (Epoch: 05 October)

Event Time Altitude Azimuth Distance (km) Brightness Sun altitude
Rises 01:07:30 0° 279° (W) 3,555 11.0 -19.5°
Reaches altitude 10° 01:12:06 10° 311° (NW) 2,669 9.8 -20.3°
Maximum altitude 01:14:14 12° 331° (NNW) 2,560 9.4 -20.7°
Drops below altitude 10° 01:16:25 10° 351° (N) 2,698 9.2 -21.1°
Sets 01:21:09 0° 22° (NNE) 3,647 9.5 -21.9°
